Regional Weather Roundup
Issued by NWS

Home | Current Version | Previous Version | Text Only | Print | Product List | Glossary Off
Versions: 1 2 3 4 5 6 7 8 9 10 11 12 13 14 15 16 17 18 19 20 21 22 23 24 25 26 27 28 29 30 31 32 33 34 35 36 37 38 39 40 41 42 43 44 45 46 47 48 49 50

000
ASUS43 KMKX 191400
RWRWI

WISCONSIN REGIONAL WEATHER ROUNDUP
NATIONAL WEATHER SERVICE MILWAUKEE/SULLIVAN WI
800 AM CST FRI DEC 19 2014

NOTE: "FAIR" INDICATES FEW OR NO CLOUDS BELOW 12,000 FEET WITH NO
SIGNIFICANT WEATHER AND/OR OBSTRUCTIONS TO VISIBILITY.

WIZ001-002-006>008-014>016-023>028-191500-
NORTHWEST WISCONSIN

CITY           SKY/WX    TMP DP  RH WIND       PRES   REMARKS
SUPERIOR ARPT  CLOUDY    23  21  91 CALM      30.26S
ASHLAND        CLOUDY    23  20  88 SW3       30.28S
HAYWARD        CLOUDY    21  20  96 S5        30.25R FOG     WCI  15
SIREN          CLOUDY    22  19  87 S3        30.25S
CUMBERLAND     CLOUDY    23  19  86 S6        30.24R WCI  16
RICE LAKE      CLOUDY    23  20  89 S7        30.27S WCI  15
CHETEK         CLOUDY    23  19  87 S3        30.26R
LADYSMITH      CLOUDY    23  21  92 S5        30.27S WCI  17
EAU CLAIRE     NOT AVBL
MENOMONIE      CLOUDY    24  19  82 S5        30.28R WCI  18
NEW RICHMOND   CLOUDY    22  19  88 S7        30.26S WCI  14
OSCEOLA        CLOUDY    23  19  85 SE6       30.28S WCI  15
$$

WIZ003>005-009-010-017-018-191500-
NORTH CENTRAL WISCONSIN

CITY           SKY/WX    TMP DP  RH WIND       PRES   REMARKS
MANITOWISH WTR CLOUDY    15  14  96 CALM      30.23S
ARBOR VITAE    FOG       14  11  89 CALM      30.24R VSB 1/4
WOODRUFF       FOG       14  11  89 CALM      30.24R VSB 1/4
RHINELANDER    CLOUDY     4   2  91 CALM      30.25R FOG
EAGLE RIVER    LGT SNOW  -1  -6  80 CALM      30.24R
LAND O LAKES   FAIR      -2  -6  84 CALM      30.24R
PHILLIPS       CLOUDY    20  18  92 S3        30.23S
TOMAHAWK       CLOUDY    13  11  90 CALM      30.26R
MEDFORD        CLOUDY    21  19  91 CALM      30.24S
MERRILL        CLOUDY    12  10  92 CALM      30.26S
$$

WIZ029-030-035-036-043>047-191500-
CENTRAL WISCONSIN

CITY           SKY/WX    TMP DP  RH WIND       PRES   REMARKS
WAUSAU         CLOUDY    17  14  88 CALM      30.26R
MOSINEE        NOT AVBL
MARSHFIELD     CLOUDY    23  20  88 CALM      30.26S
STEVENS POINT  CLOUDY    12  10  89 CALM      30.29R
WAUPACA        CLEAR     15  12  87 CALM      30.30S
WAUTOMA        NOT AVBL
WISC RAPIDS    CLOUDY    22  18  85 E3        30.30R
CAMP DOUGLAS   NOT AVBL
$$

WIZ011>013-019>022-031-037>040-048>050-191500-
NORTHEAST WISCONSIN

CITY           SKY/WX    TMP DP  RH WIND       PRES   REMARKS
ANTIGO         PTCLDY     7   5  91 CALM      30.25R
SHAWANO        CLEAR     15  12  88 CALM      30.30S
OCONTO         CLEAR     13  13  97 CALM      30.30S
STURGEON BAY   FAIR      19  16  86 CALM      30.30S
GREEN BAY      CLEAR     18  15  88 CALM      30.30S
MANITOWOC      NOT AVBL
APPLETON       PTCLDY    16  14  93 W6        30.29R WCI   7
CLINTONVILLE   CLEAR     14  12  92 W3        30.30R
OSHKOSH        CLEAR     17  14  88 CALM      30.30R
$$

WIZ032>034-041-042-053>061-191500-
SOUTHWEST WISCONSIN

CITY           SKY/WX    TMP DP  RH WIND       PRES   REMARKS
LA CROSSE      CLOUDY    24  18  77 CALM      30.30S
SPARTA         CLOUDY    24  19  81 CALM      30.30S
VIROQUA        CLOUDY    23  19  85 CALM      30.26R
BOSCOBEL       CLOUDY    25  19  78 CALM      30.31S
PRAIRIE DU CHI CLOUDY    26  20  78 E3        30.30S
PLATTEVILLE    MOCLDY    23  20  88 CALM      30.29S
$$

WIZ056-057-062-063-064-067-068-191500-
SOUTH CENTRAL WISCONSIN

CITY           SKY/WX    TMP DP  RH WIND       PRES   REMARKS
REEDSBURG      CLOUDY    23  20  87 CALM      30.29S
BARABOO/DELLS  CLOUDY    24  20  86 CALM      30.29R
LONE ROCK      NOT AVBL
MINERAL POINT  CLOUDY    27  21  80 N3        30.27S
MADISON        CLOUDY    25  19  78 W5        30.29S WCI  19
MIDDLETON      CLOUDY    26  21  81 CALM      30.30R
WATERTOWN      CLOUDY    24  22  91 CALM      30.29S
MONROE         CLOUDY    25  23  93 N5        30.27S WCI  19
JANESVILLE     CLOUDY    27  21  80 CALM      30.29S
$$

WIZ051-052-058>065-066-070>072-191500-
SOUTHEAST WISCONSIN

CITY           SKY/WX    TMP DP  RH WIND       PRES   REMARKS
MILWAUKEE      CLOUDY    26  18  71 NW5       30.30S WCI  20
WAUKESHA       CLOUDY    23  19  86 W3        30.30S
MILWAUKEE/TIMM CLEAR     19  16  86 CALM      30.31R
RACINE         CLOUDY    27  19  72 NW7       30.31S WCI  19
BURLINGTON     CLOUDY    25  20  82 CALM      30.30R
KENOSHA        CLOUDY    27  21  78 NW6       30.29S WCI  20
FOND DU LAC    CLEAR     16  12  84 CALM      30.30R
SHEBOYGAN      CLOUDY    23  19  85 NW3       30.29S
WEST BEND      CLOUDY    19  18  93 W3        30.28S
JUNEAU         CLOUDY    22  20  90 CALM      30.30R
$$

LSZ147-162-191500-
LAKE SUPERIOR

STATION/POSITION TIME  TEMP    WIND        PRES    WAVE
                       AIR SEA DIR/SP/G            HT/PER
                 (UTC) (F)     (DEG/KT/KT) (MB)    (FT/S)
DEVILS ISLAND    1300   24     200/  6/  8 1026.4R
PORT WING        1300   23     220/  3/  4 1025.1S
SAXON HARBOR     1300   21        CALM     1025.4R
$$

LMZ867-665-643>646-191500-
LAKE MICHIGAN

STATION/POSITION TIME  TEMP    WIND        PRES    WAVE
                       AIR SEA DIR/SP/G            HT/PER
                 (UTC) (F)     (DEG/KT/KT) (MB)    (FT/S)
CHAMBERS ISLAND  1300   23     290/  3/  5 1026.1R
NORTHPORT PIER   1306   23     290/  2/  6 1025.7R
ALGOMA LAKESHORE 1214          340/  7/  8   N/A
KEWAUNEE LAKESHO 1300   20     310/  2/  4 1024.8R
SHEBOYGAN LAKESH 1300   26 34  290/  8/ 10 1026.7R
PORT WASHINGTON  1300   25     300/  6/ 10 1026.4
MILWAUKEE LAKESH 1300   25     300/  6/  7   N/A
KENOSHA   LAKESH 1300   27     320/  5/ 10 1025.7R
$$

TC  - TEMPERATURE IN CELSIUS
VSB - VISIBILITY IN STATUTE MILES
WCI - WIND CHILL INDEX
HX  - HEAT INDEX




USA.gov is the U.S. government's official web portal to all federal, state and local government web resources and services.